RH
80 83 91 95 93 93 97 94 91 87 83 71 51 36 28 24 23 24 26 29 31 32 30 28 28 28 32 37 42 48 54 57 60 69 76 75 74 72 75 92 102 97 81 66 64 62 59 61 63 58 56 57 57 50 43 43 45 49 50 43 33 30 36 28 16 18 23 30 38 44 48 49 50 50 49 50 52 56 59 59 58 52 44 38 33
80 90 95 97 96 96 97 94 91 86 75 60 43 32 27 25 27 30 33 35 35 34 32 29 33 38 43 52 59 63 69 73 78 87 83 73 76 82 90 100 98 84 68 65 71 68 64 63 61 55 51 52 52 50 47 46 47 53 48 33 25 27 30 23 23 34 41 51 54 52 52 50 50 50 50 53 58 61 64 63 56 47 40 36 38
92 96 98 100 100 96 93 92 89 81 64 49 37 32 31 34 38 41 43 43 40 37 35 37 46 52 58 67 71 73 81 87 91 89 78 74 84 97 103 101 90 74 60 66 75 69 64 60 55 51 50 50 50 51 50 49 53 57 45 29 25 23 22 29 42 54 63 69 65 58 52 49 50 50 53 57 63 68 69 61 49 42 39 39 40
96 95 96 96 95 92 87 83 78 67 53 43 38 40 44 49 53 54 54 51 47 44 47 52 56 65 77 79 75 79 88 93 91 82 78 86 96 99 92 85 76 65 59 67 74 66 60 56 51 47 46 48 48 53 56 55 57 56 43 30 25 20 23 38 56 65 72 77 68 55 48 49 52 53 56 62 71 74 65 51 45 41 36 34 29
96 96 95 91 91 90 84 77 69 58 49 46 48 53 59 65 67 65 63 59 56 55 61 66 69 80 85 77 71 74 83 89 88 85 92 101 100 86 73 70 67 62 63 70 71 63 58 53 46 43 44 46 46 53 60 59 57 51 41 32 27 23 25 41 61 66 70 71 58 47 48 53 54 56 63 72 79 70 54 44 45 38 27 21 19
92 96 94 89 87 86 79 69 60 53 52 54 58 65 71 75 74 73 70 65 64 64 71 76 81 85 78 70 67 69 82 94 96 97 101 98 86 74 72 72 67 66 72 75 70 62 56 47 41 45 47 47 48 58 68 64 56 47 38 34 29 25 24 40 60 63 66 62 49 48 53 56 58 65 75 81 75 57 46 44 43 32 21 20 25
92 101 97 88 87 83 73 65 60 58 60 61 67 75 80 82 82 82 76 71 69 70 76 81 84 78 69 68 67 78 96 102 99 97 90 80 73 74 78 73 68 75 81 79 70 61 51 42 44 51 52 52 54 66 73 63 53 44 39 37 33 29 25 38 58 63 65 59 50 54 55 59 70 80 83 75 57 46 48 49 44 34 26 27 35
97 102 99 94 90 84 78 74 71 68 71 75 80 85 87 94 93 85 75 72 73 77 84 85 79 70 68 71 76 92 103 98 91 85 80 76 75 79 77 69 72 84 84 75 67 58 47 43 48 52 54 57 59 66 65 55 48 44 42 41 38 33 29 42 61 65 67 63 55 53 59 74 85 85 73 54 45 48 54 55 52 41 35 37 41
97 97 98 97 89 85 83 80 78 77 85 91 92 93 97 101 92 79 74 77 84 89 86 78 71 72 79 82 91 102 101 96 90 83 81 79 74 72 70 68 75 84 78 70 64 53 46 45 44 46 49 52 57 59 55 49 45 42 42 43 42 37 39 56 66 67 70 65 56 58 70 82 78 67 53 45 49 54 53 53 55 47 43 44 45
101 102 99 94 87 83 80 81 84 86 94 99 99 101 101 94 83 77 79 86 91 84 78 78 81 89 93 92 100 104 101 100 91 81 74 66 62 60 63 68 72 74 70 64 55 45 45 44 40 41 43 43 51 56 52 48 42 40 43 46 46 44 55 67 68 68 71 65 63 69 73 70 60 51 47 48 49 45 42 43 47 48 49 50 50
101 97 90 84 82 81 81 88 93 97 103 102 99 99 94 84 82 85 86 90 88 81 87 94 95 98 94 93 102 102 102 98 83 74 69 59 55 58 63 65 62 61 60 54 46 46 47 41 38 43 46 43 48 56 53 48 43 42 47 51 51 54 67 73 70 69 68 65 68 70 65 56 50 48 46 43 39 35 36 38 42 47 54 56 56
100 90 88 87 87 89 93 99 102 105 107 103 95 90 86 84 89 92 91 91 89 90 99 103 102 98 89 93 104 103 99 86 70 70 75 68 64 67 68 62 57 57 56 51 49 50 46 39 38 42 52 47 41 48 46 41 41 47 54 56 54 59 73 73 67 69 69 66 63 61 56 50 46 45 42 37 34 33 33 35 40 44 56 62 60
104 98 98 99 99 100 102 103 103 105 104 99 91 84 85 90 94 97 99 99 97 94 96 102 100 90 90 102 105 97 85 70 65 77 86 80 74 71 65 60 60 61 58 56 54 51 47 43 39 42 57 49 35 39 38 36 43 56 60 56 55 60 74 79 76 76 78 76 71 61 51 45 43 43 40 37 36 36 36 35 37 42 57 67 65
103 102 102 101 102 103 103 102 100 100 97 92 88 89 94 98 98 100 102 95 95 100 101 103 98 92 98 105 99 84 70 61 68 87 93 83 73 65 61 63 65 65 61 58 56 55 50 45 44 47 60 52 34 35 36 35 47 67 68 57 55 55 67 80 78 71 63 62 70 71 63 52 46 44 40 40 43 46 47 42 38 41 55 69 72
102 102 101 100 101 99 99 100 97 92 90 92 93 97 100 102 103 102 100 95 97 103 101 101 100 101 103 100 86 68 60 62 76 88 86 75 67 66 69 71 70 68 64 61 62 60 51 48 51 52 61 54 35 35 39 37 46 66 75 69 62 55 59 69 67 61 56 51 55 64 70 68 58 51 47 47 53 58 61 57 47 43 54 72 79
101 101 103 102 99 95 95 97 95 94 95 98 99 102 104 102 104 102 99 102 100 92 87 96 103 101 103 98 73 58 67 74 85 90 79 73 74 76 79 75 71 71 70 68 66 61 55 54 54 57 62 50 34 38 43 41 45 56 70 80 80 71 65 70 73 73 71 62 55 53 59 70 70 63 59 59 62 66 70 70 59 49 57 75 82
101 101 102 101 101 99 99 99 99 100 100 101 101 103 104 101 104 102 100 101 97 88 77 81 97 102 97 80 55 55 76 82 92 94 75 72 80 81 80 74 68 72 76 73 69 67 64 59 60 66 59 44 38 44 46 45 49 53 64 77 87 89 82 84 89 89 82 71 64 55 52 66 77 75 71 70 72 74 79 80 70 58 63 80 88
102 102 102 100 101 100 100 101 101 102 100 103 103 103 105 102 101 96 92 91 88 79 59 60 89 105 87 55 35 42 66 81 88 83 67 68 81 82 77 70 67 74 80 79 77 75 66 60 71 72 55 46 41 45 50 50 52 59 72 80 89 98 98 99 99 97 91 78 69 59 54 65 83 88 83 81 80 81 86 90 85 70 61 79 94
103 99 101 101 102 103 101 99 101 103 98 93 89 87 86 76 69 62 55 55 53 47 43 57 78 82 63 36 29 40 63 82 82 74 70 75 81 79 71 67 72 81 87 88 86 78 64 64 81 72 53 51 42 44 54 57 62 72 91 100 101 103 101 102 99 96 92 81 72 62 54 64 88 99 96 94 92 91 92 94 95 84 63 65 88
82 78 80 80 84 87 84 80 81 79 69 62 57 53 50 42 38 33 29 33 35 34 40 49 47 40 32 28 40 49 59 74 80 77 74 74 74 70 70 76 85 92 95 96 87 75 67 71 83 71 55 51 47 59 73 77 78 78 86 87 83 86 88 89 89 89 85 79 72 58 51 71 97 103 102 104 102 101 98 96 95 91 75 59 76
51 54 57 58 59 61 57 53 50 46 43 42 37 33 31 30 29 25 30 42 46 46 43 34 26 22 24 34 46 42 47 71 82 77 75 82 83 80 84 88 92 96 98 93 77 71 76 79 80 70 57 46 49 78 98 93 77 60 54 46 42 48 55 61 67 72 69 64 66 59 62 89 105 100 100 103 104 105 102 103 100 94 85 64 66
39 40 44 44 40 40 40 38 34 32 32 27 24 25 26 26 26 29 40 49 48 43 36 27 24 25 32 39 37 36 59 86 88 83 90 99 97 96 98 94 96 97 90 78 64 72 87 87 79 70 58 43 46 76 94 84 62 44 36 31 30 32 34 38 46 58 55 52 72 80 82 98 103 100 102 99 100 102 100 103 106 101 88 70 60
38 37 34 30 26 28 29 26 23 21 21 19 24 30 35 38 39 41 42 40 36 33 31 29 31 34 37 34 36 59 88 99 96 96 100 101 100 101 100 97 101 94 78 71 70 83 96 92 81 73 62 44 45 69 80 70 52 39 35 32 32 32 32 35 40 47 41 43 80 100 91 91 93 97 101 99 101 103 102 100 104 104 87 71 62
34 30 25 25 25 26 23 20 18 17 20 23 29 38 49 55 52 47 44 40 37 36 35 33 34 38 43 51 67 89 101 100 100 101 100 100 101 101 100 101 105 90 71 75 83 91 97 93 82 70 58 47 56 78 78 60 45 38 37 34 30 28 31 39 49 50 38 40 77 103 96 92 92 94 93 91 95 98 101 100 103 104 86 71 66
35 28 27 29 29 28 24 21 19 18 22 23 30 44 52 50 47 52 56 52 44 39 35 32 38 51 68 84 96 101 102 103 102 101 99 101 100 99 101 101 99 86 74 77 82 90 96 93 83 68 53 56 77 85 70 52 43 42 39 33 28 29 29 37 56 59 48 45 64 89 100 100 98 98 96 92 93 93 94 97 101 101 91 76 68
41 36 34 32 29 27 22 20 17 17 24 26 30 38 37 32 35 46 49 43 37 31 29 32 49 78 93 86 79 86 98 102 101 101 99 100 100 100 101 96 91 78 73 82 84 90 98 90 83 75 58 61 83 79 61 51 44 45 44 40 37 36 31 38 58 61 58 60 60 73 90 97 98 101 101 99 98 97 96 98 99 98 94 82 70
40 35 32 27 24 22 20 19 17 16 22 24 23 23 24 27 28 30 32 32 30 26 34 48 67 90 91 67 54 63 82 98 102 100 100 100 100 102 96 87 89 78 71 87 94 96 101 90 82 78 63 64 80 74 60 51 42 43 46 46 44 41 37 43 56 58 63 71 64 65 76 84 89 93 98 101 102 102 100 101 102 102 101 93 81
38 34 30 27 26 25 22 18 16 17 19 21 20 18 16 20 23 25 26 25 25 37 56 66 68 72 72 69 69 65 72 96 104 99 101 103 103 103 95 85 89 84 79 93 99 99 101 94 83 71 60 68 81 74 62 49 39 41 41 41 44 44 42 42 49 52 59 65 60 58 59 61 65 68 75 84 93 100 102 101 101 101 102 100 92
36 34 31 29 24 22 22 18 19 24 24 24 28 28 22 17 17 20 26 36 51 75 83 75 72 76 83 87 88 77 70 89 102 100 101 104 104 100 97 94 89 84 85 96 101 99 97 88 86 79 67 76 84 72 62 48 41 48 48 48 52 52 48 43 44 44 45 52 51 49 52 56 58 58 59 64 74 85 96 103 104 105 104 103 97
35 29 25 22 19 22 23 22 30 34 30 32 32 25 18 14 21 37 62 81 91 101 99 92 94 98 98 88 87 87 79 86 100 102 101 103 103 97 94 92 89 88 89 101 106 100 90 71 73 84 79 85 86 70 62 53 49 58 57 50 48 49 47 40 48 57 58 66 65 61 65 64 57 55 58 62 64 66 75 86 93 97 96 99 98
29 23 21 21 25 28 26 34 53 59 52 44 28 20 29 39 54 77 97 105 100 100 102 101 101 102 101 92 93 95 82 76 82 93 102 102 99 95 92 88 93 99 96 103 106 93 79 65 74 87 85 92 88 71 66 57 58 65 55 47 44 43 40 38 63 89 92 94 87 78 76 63 52 53 58 60 62 64 70 75 79 82 87 97 101
29 28 27 28 31 31 39 55 66 72 69 53 39 48 74 87 87 87 89 96 99 101 103 100 100 102 101 100 97 91 85 80 76 81 90 97 98 95 96 97 100 101 98 101 100 91 77 75 95 96 91 100 93 79 69 59 70 79 66 59 55 45 41 43 64 92 101 97 88 86 85 68 53 58 63 60 69 86 92 93 94 94 96 101 103
39 38 36 37 42 48 60 67 66 76 81 71 71 83 95 103 99 91 89 93 97 102 104 101 101 102 100 100 91 82 88 93 89 76 68 85 99 97 99 100 101 100 99 96 91 97 92 90 101 90 91 104 99 88 71 65 87 98 84 72 64 52 45 41 47 73 95 86 71 75 79 66 53 69 86 77 82 100 101 99 100 100 100 100 100
39 38 35 35 42 49 51 62 81 96 94 83 90 97 92 96 98 96 99 99 99 104 103 98 99 102 102 98 87 85 92 99 103 81 60 83 100 99 102 100 101 100 101 99 94 103 99 95 98 89 96 105 101 95 76 77 100 105 91 76 69 59 47 40 42 62 80 69 57 62 67 66 58 69 97 101 98 104 102 99 99 100 101 100 100
41 38 35 32 37 43 43 63 89 89 76 65 75 90 89 95 102 100 101 102 104 104 98 99 102 103 103 100 96 99 97 95 102 86 72 93 102 98 101 100 101 98 99 102 102 107 92 83 99 100 100 102 100 98 87 92 108 104 90 78 71 63 51 45 49 62 69 66 66 74 78 79 66 61 85 105 105 105 103 101 99 100 101 100 101
46 41 39 38 42 49 48 57 68 62 52 43 52 72 76 86 95 96 101 102 105 105 99 101 102 101 103 101 102 102 95 90 91 88 89 101 101 100 103 100 100 99 102 102 101 106 84 69 91 104 101 99 98 100 98 100 108 102 91 83 68 62 60 49 55 73 80 87 88 86 86 77 62 63 87 101 99 101 103 104 101 100 100 100 101
55 53 54 51 53 57 49 45 46 47 51 46 49 59 62 77 90 92 98 96 102 108 101 100 100 100 102 100 101 101 101 96 86 87 97 101 99 101 101 99 100 99 102 104 100 97 84 73 83 98 102 100 98 101 102 102 105 103 95 83 62 64 71 49 48 64 69 81 80 71 73 69 58 64 92 105 102 103 102 102 102 101 102 100 100
55 67 73 66 62 59 58 66 64 59 59 51 51 53 48 66 91 92 81 78 94 105 101 102 101 99 102 101 98 98 103 100 90 93 101 101 100 101 101 101 101 103 102 103 102 89 85 90 87 93 104 102 103 103 100 100 103 105 96 76 64 78 78 47 40 47 47 55 58 58 58 57 54 58 78 87 87 94 98 100 102 102 102 101 100
48 67 75 69 69 73 84 96 94 87 80 65 59 58 46 48 67 66 55 68 94 101 101 102 99 99 101 100 96 97 103 101 97 100 99 97 100 99 96 90 79 90 102 101 104 92 86 101 97 97 105 102 105 105 99 101 103 102 87 71 79 90 73 49 45 47 46 46 49 61 58 50 57 67 73 66 57 62 78 95 102 101 100 99 101
52 66 68 73 85 96 103 102 100 100 98 93 83 70 54 43 45 41 47 80 102 101 103 102 100 101 100 99 99 100 102 100 99 100 98 96 94 88 80 71 61 78 102 102 104 97 91 105 99 94 104 101 100 101 101 105 105 95 74 73 96 92 67 59 56 52 56 55 51 57 55 50 61 76 81 72 58 50 60 88 101 100 101 100 100
74 74 65 82 98 101 100 97 100 99 98 102 97 81 63 47 47 53 65 92 104 99 101 101 100 101 98 100 100 102 102 97 97 92 85 80 73 67 59 54 58 73 90 91 95 97 92 97 93 92 102 102 101 103 103 102 98 90 74 80 101 89 69 67 58 53 59 58 56 59 56 49 50 59 65 65 62 54 56 82 100 99 99 101 100
86 73 59 88 103 98 99 100 100 98 100 103 102 96 78 56 61 84 93 98 100 100 101 97 97 99 98 101 100 100 95 86 85 75 65 61 51 43 40 41 45 52 64 70 82 95 95 97 97 96 101 104 105 101 93 88 88 94 87 86 99 90 74 65 55 55 54 49 52 60 64 60 50 46 49 60 70 63 53 70 94 101 100 101 101
91 80 77 97 100 92 92 99 103 100 101 102 102 103 93 74 67 77 83 89 97 101 102 98 98 101 99 101 96 83 74 65 63 60 57 53 41 35 39 43 42 48 70 85 93 101 100 101 101 99 102 105 102 94 93 92 94 102 96 91 99 92 79 66 54 53 50 47 51 55 64 70 60 46 46 70 91 81 56 55 76 97 104 102 99
99 96 99 104 99 92 88 96 102 99 101 102 102 102 101 97 85 75 73 88 102 99 100 102 101 101 96 92 81 65 59 54 49 51 50 42 37 39 41 45 55 72 93 101 100 101 99 101 106 104 101 98 96 98 102 103 103 102 91 92 100 90 81 69 56 53 50 47 49 52 62 67 59 48 48 73 99 93 68 53 58 78 97 103 102
98 99 100 103 103 98 96 96 84 85 103 103 101 102 100 106 102 94 90 95 103 99 99 103 100 98 91 83 73 62 58 50 44 43 40 37 38 46 49 57 78 94 101 102 102 104 104 103 102 93 86 89 98 101 102 106 106 93 77 83 90 78 68 61 55 57 53 46 42 44 56 60 52 46 48 66 90 95 81 65 56 63 79 90 97
99 102 102 101 103 101 101 102 81 80 105 103 98 103 102 105 102 97 97 97 101 101 98 100 101 100 93 83 73 68 62 52 47 42 37 36 38 56 74 82 94 100 100 103 100 96 94 88 80 77 85 96 103 103 104 104 94 80 71 76 79 68 60 61 63 63 55 48 43 41 50 57 52 47 48 58 75 85 79 67 57 58 70 82 89
85 90 101 99 99 103 100 104 91 81 101 105 97 101 101 102 100 97 98 98 100 100 98 99 101 96 90 85 74 66 63 54 50 46 43 39 39 69 97 97 99 101 96 95 92 88 88 87 85 92 105 109 105 98 91 82 71 68 70 71 72 68 67 72 73 68 58 50 47 45 47 51 51 52 53 55 67 75 71 62 54 51 59 76 89
69 75 95 98 99 104 97 101 95 77 94 110 100 98 102 99 100 100 99 100 101 100 99 100 99 92 84 81 68 56 52 46 43 44 48 46 44 67 95 101 100 96 92 94 97 99 101 102 100 100 100 92 84 75 65 62 64 67 70 71 73 74 78 84 81 73 63 53 50 48 45 48 52 55 55 56 65 71 65 59 56 51 49 57 74
87 89 97 99 99 103 96 91 91 82 92 108 103 99 101 100 100 100 99 101 102 100 100 100 101 96 84 73 61 51 46 41 40 40 43 48 48 56 74 91 99 99 101 103 102 101 95 88 82 78 76 70 67 66 65 70 74 77 80 81 82 81 84 90 86 77 64 55 53 49 45 49 54 54 53 55 61 64 62 59 58 56 53 51 56
100 99 100 100 99 105 99 81 80 90 97 102 103 100 99 101 101 99 101 103 102 101 100 99 99 92 80 68 60 55 51 46 44 42 40 44 49 53 59 70 82 89 91 89 87 84 77 70 70 70 70 71 74 76 81 88 89 90 92 91 91 90 91 93 88 77 65 58 56 51 45 47 51 51 49 51 54 59 62 62 61 58 57 58 58
97 100 101 102 101 105 103 81 66 81 98 100 99 102 100 100 101 99 100 103 102 101 99 99 98 88 72 65 68 72 72 67 60 53 47 45 46 49 54 59 68 78 81 83 84 82 81 81 78 76 74 73 73 72 76 84 91 96 98 98 98 95 97 98 87 73 66 64 61 54 45 44 48 49 48 48 52 59 64 63 63 61 58 59 62
Wind_Speed
66 66 67 67 68 69 71 71 71 70 70 70 70 69 68 68 69 70 70 71 71 72 73 74 76 77 77 76 75 74 75 76 75 73 73 76 79 80 80 77 73 72 76 78 76 73 72 71 70 69 66 64 63 61 61 58 53 50 49 49 51 51 48 45 43 39 36 35 34 33 32 31 31 31 29 28 27 25 24 23 23 23 23 23 23
67 68 69 70 70 71 71 72 72 72 72 72 71 71 70 71 72 72 73 73 73 74 75 77 77 76 75 75 74 75 76 75 72 72 76 80 81 80 77 73 72 75 77 76 74 71 70 69 68 67 65 62 61 59 58 54 50 48 46 48 49 47 43 41 39 36 34 33 32 31 30 30 29 29 27 26 24 23 22 22 23 23 22 22 21
68 69 70 72 72 73 73 73 74 74 74 74 73 73 73 74 75 75 75 75 76 77 77 76 75 74 75 75 76 77 77 75 73 77 81 82 80 77 74 73 74 77 76 74 72 70 68 67 66 65 63 61 58 56 53 49 47 46 45 46 45 43 40 37 35 34 33 32 31 30 28 27 27 26 25 23 22 21 21 21 22 21 20 20 19
69 71 72 73 74 74 74 74 74 75 75 75 75 75 76 76 77 76 77 77 78 77 76 76 76 77 76 75 78 80 79 78 80 82 82 79 76 74 74 75 76 76 74 72 70 68 66 65 65 64 63 60 56 52 49 47 46 44 45 45 43 41 37 34 33 32 32 32 30 28 26 25 25 24 22 20 20 20 20 21 20 20 19 18 18
70 73 74 74 75 75 75 75 75 76 76 77 76 77 78 78 78 78 78 78 78 78 77 77 77 76 75 78 83 83 83 84 84 82 78 75 74 73 74 74 74 73 71 69 68 66 65 65 66 66 63 59 54 50 47 45 45 44 44 43 42 40 36 33 31 31 31 30 28 25 24 23 22 21 19 18 19 19 20 19 19 19 18 18 17
73 75 76 76 76 76 76 77 76 77 78 78 78 80 80 80 80 79 78 79 79 79 78 77 75 75 78 82 83 82 83 82 80 76 73 72 72 72 71 70 70 69 67 66 65 63 63 65 67 65 59 54 51 47 44 44 43 43 43 43 41 38 35 32 31 30 30 29 26 23 22 20 19 18 17 18 19 19 18 18 18 18 18 17 16
74 75 76 76 76 76 77 77 77 78 79 80 81 81 80 81 80 78 79 81 82 81 80 78 77 79 81 80 78 78 77 75 73 71 69 69 69 68 67 68 68 66 64 63 62 62 63 66 65 59 54 51 48 45 43 42 42 42 42 42 40 37 34 32 31 30 29 27 24 21 19 18 18 17 17 18 19 18 17 17 17 17 17 16 15
75 76 76 76 76 78 78 78 79 80 80 81 81 80 81 80 78 79 82 84 83 81 79 79 80 80 77 74 74 73 71 70 68 67 66 65 65 65 66 68 67 64 62 62 61 62 64 64 59 55 52 49 46 44 42 41 40 40 40 39 38 35 33 31 30 29 28 25 22 20 18 17 17 17 18 18 17 16 15 16 16 17 17 16 16
76 76 76 78 79 79 80 80 81 80 80 80 80 80 80 79 80 83 85 83 80 78 79 80 79 74 70 69 69 68 68 68 66 64 64 64 65 66 67 68 66 63 61 60 60 62 63 59 55 53 50 47 45 42 41 40 39 38 38 37 36 33 31 30 28 27 26 23 21 19 17 17 17 18 18 16 15 14 15 15 16 16 17 17 16
74 76 78 80 81 81 82 81 80 79 79 80 80 79 78 79 82 84 83 80 78 78 79 77 72 66 64 66 67 67 69 68 65 65 67 68 69 68 68 66 62 60 60 58 59 60 56 52 53 51 46 45 43 40 39 39 38 38 36 35 33 31 29 27 26 25 23 21 20 18 17 17 17 16 15 13 13 14 14 15 16 16 16 17 17
80 82 82 83 83 83 82 81 80 79 79 79 78 77 79 82 84 85 84 81 78 75 72 68 65 63 65 69 71 69 68 66 67 69 70 71 71 70 67 62 58 57 57 57 56 53 49 51 52 49 45 44 42 39 39 39 38 36 34 32 30 28 26 25 23 21 20 19 19 19 17 17 16 14 13 13 13 14 14 15 16 16 16 17 17
85 85 85 85 84 84 82 81 81 80 80 78 78 80 83 85 86 85 82 78 74 69 67 65 62 64 70 74 70 66 66 68 71 70 68 69 68 66 63 59 57 56 56 54 51 47 48 51 51 48 45 45 42 39 39 38 36 33 31 30 28 27 25 22 19 16 16 17 18 18 17 16 15 14 14 14 14 15 15 16 17 17 17 17 17
85 85 85 84 83 82 81 80 80 79 79 80 82 84 86 85 84 81 76 72 70 67 67 65 65 71 75 71 65 66 68 71 71 68 65 64 63 61 59 58 57 56 54 51 49 47 49 50 51 49 46 46 42 39 38 35 32 30 29 28 27 26 23 19 16 15 17 18 18 18 18 18 18 17 16 16 16 16 17 17 18 18 18 17 18
84 84 83 82 81 80 79 80 79 79 79 82 84 84 83 81 78 75 73 72 72 70 71 71 73 78 74 66 66 70 71 72 70 64 60 59 59 59 59 58 57 55 53 51 48 46 48 50 51 49 47 46 43 41 38 33 29 28 27 27 26 25 21 18 17 19 20 20 19 20 21 21 21 20 19 19 19 19 19 19 19 19 18 18 17
82 83 83 82 81 81 82 82 82 81 82 82 81 78 76 76 77 78 78 78 76 74 75 77 78 77 69 66 70 74 74 73 68 60 57 58 59 59 59 58 56 54 52 49 46 45 48 51 51 49 47 44 42 42 36 31 29 27 27 27 27 26 23 21 21 22 23 22 21 21 23 24 24 24 23 22 22 22 22 22 21 20 20 18 18
83 84 84 84 83 83 83 82 81 80 79 76 75 75 77 80 81 80 78 75 71 69 71 74 76 72 66 69 75 76 74 71 64 60 60 60 60 59 58 57 55 53 50 47 44 45 49 51 52 49 44 41 41 40 35 31 30 28 28 28 28 29 28 27 26 27 28 27 25 24 24 26 27 27 27 26 25 25 24 24 23 21 21 20 19
81 82 83 82 80 78 78 78 78 77 78 77 79 81 83 82 76 71 70 69 68 69 73 74 72 68 70 76 79 76 72 69 65 64 66 64 62 60 57 56 55 52 49 46 44 46 49 51 50 44 40 39 40 39 34 31 31 29 28 28 28 29 30 30 30 31 32 31 30 28 25 26 28 29 30 29 28 27 26 24 23 22 22 22 21
83 84 83 81 79 77 77 78 80 81 82 83 84 85 82 79 75 74 76 78 79 80 82 79 74 74 78 82 83 78 72 70 68 69 69 65 61 59 56 56 55 52 48 46 45 47 49 49 44 39 38 39 41 39 34 32 32 30 28 28 28 28 30 32 33 34 36 35 33 31 28 27 29 30 31 31 29 28 27 25 24 23 23 23 23
86 86 85 85 84 83 83 84 85 85 86 88 88 86 84 82 83 84 84 85 85 85 82 78 77 81 84 85 82 76 70 68 67 66 64 60 58 57 56 56 53 48 45 44 46 47 47 45 39 37 39 40 42 40 35 33 32 31 30 29 29 30 31 33 35 36 38 37 35 34 31 28 29 30 31 31 30 30 29 28 26 24 23 24 24
86 86 87 88 87 87 88 88 88 87 88 87 86 86 86 85 85 85 84 84 83 81 80 78 80 82 82 80 75 71 69 68 66 63 59 57 56 55 55 51 46 43 43 44 45 45 44 41 37 38 40 41 43 39 35 33 32 32 32 33 33 33 34 35 36 37 38 37 35 34 31 28 27 29 30 30 31 31 30 29 28 26 25 24 24
86 86 86 86 85 85 85 85 84 84 83 82 82 83 84 83 83 82 80 79 78 77 77 78 79 79 78 75 72 70 69 66 63 60 55 52 51 50 48 44 42 41 41 43 43 43 41 39 38 38 39 41 41 37 33 33 33 33 34 35 34 33 33 34 35 36 37 35 33 31 29 27 26 28 29 30 31 32 31 29 28 27 26 25 24
84 84 84 83 83 83 83 82 80 80 80 81 81 80 80 80 80 78 76 76 76 76 76 76 75 74 73 71 69 68 64 60 57 52 47 45 45 42 41 41 40 40 41 43 43 41 38 37 37 37 40 43 40 36 35 34 33 33 34 34 32 30 28 28 30 33 34 32 29 28 27 26 27 29 29 30 31 32 32 30 30 29 27 26 26
81 81 82 82 82 82 82 81 79 79 79 78 77 76 74 73 72 73 73 75 75 75 74 72 71 70 69 67 65 62 56 50 46 43 41 40 39 38 40 41 39 39 42 42 41 38 35 35 36 38 42 43 39 35 34 32 33 33 33 32 29 28 25 23 25 29 30 28 26 26 27 27 28 29 29 30 30 32 33 33 32 30 29 28 28
77 78 79 79 78 78 78 78 77 76 74 72 71 68 65 65 68 69 71 72 73 72 70 69 68 67 64 60 55 49 42 38 38 38 37 36 38 40 41 39 38 40 41 40 39 36 33 34 37 40 42 40 37 33 30 31 32 32 31 29 28 28 25 23 24 27 28 26 26 27 28 29 30 30 31 30 31 33 34 34 32 30 31 31 30
75 77 77 76 75 74 74 73 73 71 70 69 66 64 63 67 69 68 67 68 69 69 68 68 66 62 56 50 46 41 35 36 38 37 37 38 40 41 39 38 41 42 41 41 40 36 34 35 38 38 37 36 33 29 29 30 31 31 29 28 28 29 27 25 25 26 26 25 26 29 30 30 31 32 33 34 35 36 36 35 33 34 35 34 32
73 74 74 73 73 73 72 71 71 70 67 66 65 65 66 68 68 67 68 69 68 69 69 67 63 58 52 49 50 47 44 43 39 35 35 37 38 38 38 41 43 43 42 41 39 36 34 37 37 34 33 33 31 29 29 29 29 30 30 31 32 32 31 28 27 27 25 23 24 27 30 33 33 33 33 34 35 37 38 38 38 39 37 36 35
73 73 72 73 73 72 72 71 70 68 66 65 65 66 65 65 67 68 68 68 66 66 65 63 60 55 53 53 52 51 49 46 41 38 36 36 38 39 41 43 42 43 42 38 37 35 34 37 37 32 32 34 32 30 28 26 28 29 31 33 34 33 30 27 26 26 24 22 22 23 27 31 34 36 37 36 35 35 36 37 38 38 37 37 37
72 72 71 71 70 70 70 70 69 68 66 64 63 64 63 63 64 64 64 65 63 62 60 58 56 53 50 46 44 47 48 45 44 42 39 39 42 43 44 44 41 41 40 38 37 36 35 35 35 33 33 35 32 27 25 25 27 29 30 32 33 32 29 27 26 25 23 24 24 24 25 27 30 33 36 39 39 38 37 38 38 38 37 36 38
69 69 69 68 68 68 68 68 67 65 63 61 60 60 60 61 61 61 60 56 51 46 44 46 47 47 43 38 39 45 46 46 45 42 41 42 44 45 43 42 42 41 40 40 40 40 37 34 33 33 35 35 28 24 24 26 28 28 29 30 32 31 29 28 27 26 25 26 26 26 26 25 27 29 32 35 38 40 41 41 41 40 38 36 36
66 67 67 67 66 66 65 64 61 61 60 58 58 58 58 57 54 50 43 37 35 30 29 35 39 41 41 41 43 45 44 45 45 45 47 44 42 43 43 43 43 42 40 40 40 40 37 35 34 34 36 32 25 23 25 27 28 27 26 29 31 32 32 31 29 28 27 26 25 24 24 25 26 28 30 32 34 37 39 39 39 39 37 34 34
65 65 65 65 64 63 61 55 51 53 55 55 56 54 51 47 42 34 29 31 35 34 35 38 40 40 41 42 43 43 43 45 47 49 51 45 40 42 43 42 39 36 35 33 34 36 37 37 35 33 35 30 25 25 26 27 28 26 24 28 32 35 37 34 28 25 23 23 23 23 25 26 25 26 28 29 29 29 29 29 30 30 30 29 29
63 63 62 61 60 58 51 45 46 48 50 52 49 41 33 33 34 33 34 38 41 38 37 38 38 40 42 43 44 44 44 45 46 49 48 42 38 40 39 38 34 31 31 29 30 34 37 36 29 31 34 29 26 27 27 27 28 27 26 30 34 38 39 34 29 25 23 23 25 26 27 26 24 25 26 27 26 21 20 20 21 23 25 26 26
59 58 58 56 52 47 40 39 43 42 43 42 37 32 30 31 34 34 35 39 40 38 39 40 40 43 45 47 48 49 47 45 45 47 46 39 35 37 37 34 29 26 28 31 33 33 33 31 27 33 36 29 27 28 28 27 27 27 28 32 35 38 38 35 33 30 27 27 28 28 29 28 25 24 25 27 25 20 18 19 21 23 24 25 25
57 56 57 56 51 47 43 39 35 32 35 34 33 35 36 37 37 34 34 36 37 38 43 46 47 50 51 51 51 50 48 45 44 43 41 36 33 35 33 27 23 22 24 28 32 30 30 31 32 36 34 28 29 32 30 28 27 27 30 33 36 39 39 36 34 32 31 31 30 29 29 27 25 24 25 27 28 25 23 21 20 22 24 24 24
56 57 58 57 55 52 46 40 38 37 40 42 41 39 37 39 41 37 37 38 38 37 40 44 48 50 49 47 44 43 43 42 42 38 35 35 37 37 34 27 23 23 24 26 29 29 32 35 32 32 32 30 34 35 30 28 27 28 32 34 38 41 38 36 34 31 32 31 28 27 26 25 25 24 23 25 28 29 27 25 20 18 20 23 25
55 56 56 56 54 52 47 45 48 48 47 49 48 44 41 43 44 42 40 41 41 39 37 38 40 41 40 40 39 40 41 40 38 33 31 34 37 38 37 33 26 24 27 29 30 30 34 36 28 23 25 30 35 33 30 29 29 31 33 36 41 41 35 34 31 28 29 27 26 26 25 26 25 23 21 23 27 28 26 26 25 21 20 22 24
52 53 53 53 51 50 49 49 52 51 49 48 47 45 45 46 46 46 46 47 46 44 42 39 38 37 38 40 40 39 38 36 33 31 32 35 38 39 37 35 32 32 34 34 33 33 35 34 28 22 23 29 33 32 31 31 31 32 33 38 44 39 32 32 29 28 29 28 29 29 26 25 23 21 25 28 30 29 26 25 27 27 25 24 24
53 51 49 49 47 47 46 45 46 47 46 45 44 45 47 47 48 47 48 49 48 46 46 44 41 40 40 40 40 39 37 34 32 34 36 40 43 43 41 41 42 44 44 39 37 38 34 30 31 31 32 35 34 32 32 32 32 32 34 41 42 35 32 31 29 29 30 29 31 30 27 25 22 24 29 32 32 32 30 28 27 27 27 27 27
51 47 44 42 42 43 42 40 40 40 40 41 43 44 45 47 48 49 49 49 47 46 46 44 41 41 39 38 38 38 36 34 34 36 40 45 47 47 47 48 50 51 49 43 38 39 35 30 31 32 34 35 32 31 32 33 34 35 39 42 37 32 32 30 27 28 29 29 30 29 28 27 25 26 30 31 32 34 34 33 29 26 26 27 27
49 45 42 39 39 39 37 36 37 37 36 37 39 41 42 44 46 47 48 46 45 46 46 44 42 41 40 38 37 37 36 35 36 38 41 45 47 49 50 50 51 52 50 45 38 38 36 32 32 33 34 34 32 33 34 34 37 40 43 40 34 33 32 27 25 27 28 29 29 29 29 27 26 27 29 31 32 34 35 35 32 28 27 28 28
44 42 41 39 38 36 35 34 33 32 33 34 36 38 39 42 44 44 45 44 44 45 46 45 45 45 45 42 40 40 40 40 40 41 42 45 47 49 50 48 49 50 49 47 42 40 39 36 36 35 35 35 35 36 37 39 42 42 40 37 35 33 30 26 26 28 29 30 30 29 28 28 27 28 30 33 33 33 34 36 35 33 31 31 31
43 44 42 39 37 37 38 39 36 32 31 31 32 35 37 40 43 43 43 43 44 44 45 45 45 46 48 47 46 46 46 45 45 45 44 46 48 48 47 44 44 44 41 41 39 38 39 38 37 37 36 36 37 40 43 45 44 40 37 37 37 34 30 27 27 29 31 32 31 29 29 29 30 30 31 32 33 32 33 36 38 38 37 34 34
42 44 42 39 41 43 44 45 41 37 35 34 32 33 35 38 42 42 42 41 40 40 42 44 45 46 47 47 47 47 47 46 46 45 45 48 47 44 41 38 38 36 32 32 33 35 37 36 36 37 36 36 39 42 44 44 41 37 36 37 38 35 30 28 29 32 32 32 33 32 31 31 32 32 32 31 32 32 32 35 39 42 42 40 38
41 41 41 40 42 44 46 45 42 39 39 40 38 37 36 36 38 41 41 38 36 37 38 41 43 45 46 46 45 44 44 45 46 45 45 45 42 38 36 33 31 29 28 30 32 34 35 35 35 36 37 39 42 42 42 42 40 37 36 37 37 33 30 30 33 35 34 32 33 34 33 33 34 34 33 31 31 32 32 33 37 41 45 46 44
44 42 42 43 44 44 45 45 44 44 43 42 41 40 40 38 37 38 38 36 36 38 39 40 40 42 44 45 45 43 43 43 41 39 38 38 35 33 32 29 26 26 30 33 33 33 34 35 36 38 41 43 44 43 44 43 41 40 39 38 36 34 33 35 37 38 36 34 34 35 35 35 35 35 35 34 34 34 34 34 36 39 44 48 48
47 46 45 46 47 46 45 45 46 46 44 43 41 40 42 41 39 37 36 37 39 40 39 38 37 37 38 40 40 38 37 35 32 30 30 31 31 30 28 27 26 27 30 32 33 35 36 38 39 41 42 43 42 44 46 45 45 42 38 35 35 36 37 39 40 39 37 36 35 35 36 36 36 36 36 35 35 35 35 35 36 38 42 47 48
48 49 49 50 50 48 45 45 46 46 45 44 42 41 41 41 39 38 40 41 42 41 38 36 35 34 34 33 33 31 31 30 28 25 24 26 27 27 27 27 27 28 31 33 37 39 39 39 39 40 42 42 42 44 45 46 45 41 37 36 36 37 39 41 40 39 37 36 35 35 36 36 36 36 35 35 35 36 36 36 36 37 40 45 49
47 50 52 53 54 51 48 46 47 47 46 44 43 42 41 41 40 40 41 42 42 41 39 36 34 33 32 31 30 30 31 31 29 26 23 22 23 25 27 29 31 32 33 35 37 38 37 37 37 38 41 42 43 43 44 43 42 40 39 38 38 39 41 41 41 39 37 36 36 35 36 36 36 35 36 35 36 36 37 37 37 37 38 42 47
44 47 50 53 54 54 52 49 48 47 45 44 44 45 43 42 42 40 39 40 40 39 38 36 34 33 32 32 31 32 32 32 31 30 27 24 22 23 26 30 33 34 34 34 35 35 36 36 36 38 40 42 42 42 42 41 41 40 40 40 40 42 42 42 41 40 38 37 37 36 36 35 35 35 36 36 36 37 38 37 37 37 37 39 43
40 44 47 51 52 53 53 51 49 47 45 44 46 47 45 44 44 43 43 42 41 39 38 37 37 35 34 33 33 32 32 31 31 31 30 28 25 24 24 27 30 33 34 34 35 36 36 36 37 38 40 41 41 42 42 42 43 42 42 42 42 42 43 42 41 40 39 38 38 37 36 35 35 36 36 36 37 38 38 38 38 37 36 37 39
39 43 47 50 52 53 54 53 51 49 47 47 48 48 47 46 45 46 46 45 43 42 41 41 40 37 36 35 33 32 31 31 31 30 30 29 29 28 27 27 28 30 32 33 35 36 36 37 37 38 39 40 41 42 42 43 44 44 43 42 41 41 42 42 40 39 39 38 38 38 37 35 35 36 36 36 36 37 38 39 39 39 37 36 36
Wind_Direction
284 285 286 286 286 286 287 288 290 291 292 292 294 296 297 298 299 299 300 300 301 302 302 303 303 303 304 304 305 305 306 307 307 306 308 309 310 311 311 310 308 308 310 310 311 311 311 312 312 313 312 312 313 316 318 316 313 314 316 317 316 314 311 307 303 299 297 296 293 290 287 284 281 280 281 282 281 280 278 277 279 282 282 280 279
285 285 285 285 285 285 286 287 289 290 291 292 294 296 297 298 299 299 299 300 301 301 302 302 303 303 303 304 305 306 306 307 306 306 308 309 310 310 310 308 308 310 310 310 311 312 312 313 313 314 313 312 314 316 318 315 313 314 317 319 317 315 312 306 303 299 298 295 292 289 286 284 282 281 281 281 279 277 276 279 283 283 280 278 278
283 283 283 283 283 284 285 286 288 289 291 293 295 296 297 298 298 298 299 300 301 301 302 302 303 303 303 304 305 306 305 305 304 305 307 309 309 309 308 307 308 309 309 309 311 312 313 314 314 314 314 313 314 317 318 315 313 315 318 320 319 317 313 307 303 300 298 295 292 289 286 285 283 283 281 279 276 275 278 282 283 281 279 278 279
280 281 281 281 282 283 285 286 287 289 291 293 295 296 297 297 298 298 299 300 300 300 301 302 302 302 302 303 305 305 304 303 303 305 306 307 308 308 308 308 308 307 307 308 311 312 314 315 315 315 315 314 314 316 316 314 315 315 317 319 319 318 313 306 302 300 299 295 291 288 286 285 284 282 279 275 273 276 281 283 281 279 279 279 281
279 279 280 280 281 283 285 286 287 290 292 293 294 295 296 296 297 298 298 299 300 300 301 301 301 301 301 303 305 304 302 301 302 304 305 306 306 307 308 307 307 306 307 308 310 312 314 315 316 315 315 314 313 314 313 313 315 316 317 318 318 317 312 305 301 301 301 295 291 287 286 285 284 281 276 271 273 278 281 281 280 281 282 282 283
278 278 279 280 281 283 285 286 288 290 291 292 293 294 294 295 297 297 298 299 299 300 300 300 300 301 302 304 305 303 301 301 303 304 304 305 306 306 307 307 307 307 308 308 310 312 314 316 316 316 315 314 313 313 313 313 315 316 317 317 316 315 310 303 300 302 301 296 290 287 286 285 282 276 270 270 275 278 278 280 281 283 284 285 285
277 277 279 280 281 283 285 286 288 290 290 291 292 293 294 295 296 296 297 298 298 299 299 299 300 301 303 303 304 303 302 303 304 304 304 306 306 306 307 307 307 308 308 308 310 312 315 316 317 317 317 315 313 313 313 314 315 316 316 315 314 314 309 302 299 300 301 296 289 286 285 283 277 269 268 273 276 275 277 281 283 284 284 286 287
276 277 278 279 280 282 284 285 287 289 289 289 290 292 294 295 295 295 296 297 298 299 299 300 301 302 303 303 302 302 303 304 305 306 307 307 306 306 307 308 307 307 308 309 311 313 315 316 317 318 318 316 315 314 314 315 316 316 316 314 313 313 307 301 298 299 299 294 288 284 281 275 270 268 272 274 273 273 278 283 285 285 285 286 286
275 276 277 278 280 282 283 285 286 288 288 289 290 292 293 293 293 295 296 297 298 299 301 302 303 303 302 302 301 301 303 304 306 308 309 308 307 307 308 308 307 306 307 309 311 313 314 315 318 319 319 319 318 317 317 318 318 317 317 315 313 311 306 300 298 299 297 292 286 281 274 271 270 272 273 272 272 274 280 284 286 285 284 285 286
274 275 276 278 280 282 284 285 286 287 287 289 290 291 291 292 293 295 296 298 300 301 302 302 302 302 301 301 300 300 303 304 306 308 309 308 307 307 307 307 306 306 307 310 312 314 314 315 319 320 321 323 322 320 319 319 319 319 317 315 312 310 304 299 299 299 297 290 283 278 273 272 273 271 269 268 271 275 279 284 286 284 284 285 286
274 276 277 279 281 283 284 285 285 286 287 289 290 290 291 292 294 295 296 298 301 303 300 299 299 299 300 300 299 300 302 304 306 308 308 307 306 305 305 305 305 306 308 311 313 313 313 317 319 320 323 326 323 319 318 318 319 318 316 313 311 307 301 299 300 301 298 292 283 278 275 272 269 266 265 267 271 275 280 284 285 284 283 283 285
276 277 279 280 281 282 283 283 284 285 286 287 289 290 291 292 293 295 297 299 301 300 297 295 295 297 300 299 298 300 303 305 307 308 306 305 304 303 303 303 304 306 309 311 312 311 313 317 320 320 322 327 324 318 317 318 319 318 314 311 309 305 299 300 301 306 307 301 292 282 274 268 266 266 268 270 274 280 284 285 285 284 282 282 284
276 278 279 280 281 282 282 282 284 284 285 286 288 290 291 292 293 295 297 298 298 296 295 293 294 297 298 298 299 301 303 306 307 306 303 302 302 302 302 303 305 306 308 310 309 309 313 317 321 321 322 327 328 324 322 321 322 318 312 308 307 303 298 300 302 308 308 304 301 290 277 271 269 269 271 274 279 285 288 287 284 283 282 281 282
276 278 279 280 281 281 281 282 283 283 285 286 288 290 291 292 293 293 294 295 294 294 295 293 293 295 295 296 299 303 304 305 304 302 300 301 301 302 303 304 304 305 306 307 308 310 314 318 321 320 321 326 330 329 327 325 325 317 308 305 305 302 297 296 298 303 301 300 300 291 282 277 274 273 272 276 281 286 290 291 287 283 281 280 280
276 277 278 278 279 280 281 281 282 283 285 287 288 289 290 290 290 290 291 292 292 292 294 292 291 292 292 295 301 304 304 302 300 298 300 302 303 303 303 303 303 304 306 308 309 311 314 318 320 319 320 325 329 329 328 328 326 316 306 300 298 298 297 296 297 300 299 299 298 292 285 279 277 275 274 276 280 285 289 291 290 284 280 278 277
275 276 277 278 279 280 281 281 282 284 285 286 286 286 287 288 289 290 290 290 290 292 295 293 290 289 292 297 302 303 301 299 296 296 300 302 302 301 302 302 303 305 307 308 309 312 316 319 319 318 320 325 329 329 326 327 326 318 308 301 296 293 293 296 298 300 298 298 299 295 286 278 275 275 274 275 279 282 286 288 289 285 278 275 275
274 275 275 277 278 279 279 280 280 282 283 283 283 285 286 288 290 290 290 289 290 291 294 294 289 288 294 299 300 299 297 296 294 295 299 300 299 299 299 300 302 305 306 308 310 314 319 319 319 319 322 327 330 329 324 326 327 321 313 306 301 295 291 293 297 299 297 298 298 295 286 278 274 273 273 274 276 280 283 285 287 285 278 273 274
271 272 272 273 274 276 277 278 279 280 281 281 283 285 285 286 287 289 289 289 289 290 292 292 287 288 294 297 297 295 294 294 293 295 297 297 297 296 298 300 302 304 305 308 312 316 319 319 320 322 326 330 331 329 323 324 325 322 315 309 305 300 295 292 294 296 295 296 296 292 286 278 271 269 271 272 275 278 281 283 285 287 282 275 273
269 270 271 272 272 273 275 276 278 279 280 281 283 283 284 286 286 288 289 289 289 289 290 289 287 288 291 293 293 293 293 294 295 296 296 296 295 296 298 301 302 303 304 308 312 317 318 318 319 323 329 332 331 328 322 322 323 320 314 307 303 299 295 292 293 293 292 293 293 291 286 278 270 267 268 271 273 276 279 281 283 286 287 281 274
270 271 272 272 273 273 275 276 277 279 280 281 283 283 285 286 287 288 289 289 288 288 288 287 287 287 289 291 291 291 293 294 295 296 296 296 297 299 300 300 300 301 304 308 312 316 315 315 315 319 329 333 330 325 320 319 319 316 311 305 301 296 292 290 291 290 289 290 289 287 283 276 270 267 268 271 274 276 279 281 283 285 287 285 277
271 272 273 274 275 275 276 278 278 279 280 282 284 285 286 286 287 288 289 288 287 288 288 288 287 287 288 289 290 292 293 293 294 296 298 299 300 300 299 297 298 301 304 308 312 313 312 311 311 316 327 332 328 320 313 313 315 315 311 308 304 298 293 289 287 285 284 286 285 282 278 272 270 271 271 273 276 278 279 280 282 283 284 285 280
272 273 274 275 276 277 277 278 280 280 282 284 285 286 287 286 287 287 287 287 287 288 289 288 288 288 288 289 291 292 292 293 295 298 299 299 298 296 294 295 298 301 306 310 312 311 309 309 310 317 326 329 325 314 308 310 316 317 314 311 308 303 298 292 285 281 280 281 280 277 271 267 268 270 271 273 277 280 280 280 279 280 281 282 281
273 274 275 276 277 277 277 278 280 282 283 285 286 287 287 287 286 286 287 287 288 289 289 290 289 289 289 290 290 291 293 296 297 298 298 295 291 290 293 296 299 304 308 311 311 308 306 309 312 318 324 325 320 312 309 314 318 318 314 310 307 304 302 297 288 281 280 280 276 275 272 269 269 270 271 272 276 280 281 280 275 274 278 281 281
274 275 276 277 278 278 279 280 282 283 284 285 285 286 285 286 287 288 288 287 288 289 290 290 290 289 290 290 291 293 296 295 294 294 292 289 287 290 293 297 301 307 310 308 306 302 303 311 315 319 323 322 316 312 314 318 319 315 310 307 307 307 302 297 292 286 284 280 272 272 274 277 277 277 277 276 278 280 280 279 271 270 278 280 280
274 275 276 277 278 280 281 281 282 283 284 285 284 283 283 284 286 286 286 287 288 289 289 289 288 287 286 287 288 287 285 284 288 290 286 284 286 289 291 296 302 307 308 303 299 298 302 310 318 323 323 320 314 313 317 319 317 312 307 305 307 310 305 296 292 289 288 282 272 267 267 270 276 278 278 277 277 277 278 277 273 275 279 279 280
274 275 276 278 279 280 281 281 281 282 283 283 282 282 282 283 282 282 283 285 287 287 287 286 285 284 283 283 282 280 277 278 281 283 282 282 285 286 289 297 301 302 303 299 294 295 301 311 320 323 322 320 314 313 316 317 315 311 308 304 305 309 306 297 290 290 291 285 277 270 265 264 267 270 273 275 274 272 272 272 272 274 276 276 278
274 275 276 278 280 281 281 282 282 283 282 282 281 281 281 280 280 281 283 285 286 286 285 284 284 283 283 284 280 277 276 274 272 273 275 281 284 285 290 297 301 299 298 295 293 296 302 311 317 315 317 318 312 311 314 314 314 313 310 306 306 308 304 295 290 291 289 283 281 277 271 266 265 265 267 270 270 269 268 267 268 270 271 273 275
275 276 277 279 280 281 282 283 284 284 283 283 282 282 281 280 281 282 283 284 286 286 284 284 283 281 281 282 277 275 274 270 269 271 273 281 285 288 294 297 298 297 293 291 293 299 305 310 311 308 315 317 309 308 311 311 315 316 312 309 310 309 303 297 293 293 288 282 282 278 273 270 268 267 266 267 267 268 267 267 268 270 272 272 274
276 277 279 280 281 282 283 284 285 285 285 285 284 283 283 282 282 283 283 284 284 284 283 281 278 276 275 273 272 275 274 269 268 267 270 281 287 290 293 293 293 291 289 290 292 297 302 305 307 309 317 316 306 304 307 309 316 318 315 315 316 313 308 305 300 296 293 287 284 281 276 275 275 274 272 270 268 267 267 268 269 271 273 273 274
276 278 279 280 282 282 284 286 287 287 286 285 284 285 286 284 283 284 282 276 273 271 269 268 271 274 274 271 272 275 274 270 266 264 270 281 286 287 288 289 288 286 288 289 290 293 297 300 304 313 319 312 300 301 304 308 314 316 319 322 323 320 316 315 309 301 299 295 291 288 284 283 283 281 280 278 274 271 270 271 271 271 271 270 269
276 278 278 279 281 282 285 287 285 286 286 285 285 286 286 284 280 275 264 258 265 266 260 261 269 274 274 272 273 274 273 271 267 267 273 279 282 285 287 286 284 286 290 291 293 293 297 303 307 314 317 307 297 299 301 306 310 310 316 323 325 325 322 318 312 301 296 297 293 288 285 286 288 288 288 285 280 277 276 274 272 269 264 259 258
276 277 277 279 280 283 285 282 280 282 284 285 286 284 281 277 271 264 258 260 269 269 260 259 264 269 269 269 273 276 276 274 271 270 273 275 277 281 282 282 285 289 289 289 295 296 301 309 310 313 314 303 294 296 299 304 306 302 308 318 322 327 324 315 308 296 288 291 288 283 283 288 293 295 294 290 283 278 278 275 268 260 253 248 248
274 276 277 278 279 280 279 277 278 277 278 282 281 275 267 261 262 263 261 263 266 263 257 256 259 263 266 270 275 278 276 275 272 271 271 270 273 276 276 281 286 287 285 286 291 297 305 306 301 307 306 293 288 294 297 301 299 297 306 317 322 326 321 311 304 294 288 290 290 286 285 288 295 296 292 291 285 271 262 263 260 256 250 245 243
274 275 275 275 275 274 273 273 270 264 268 272 267 264 257 252 257 260 259 261 262 260 261 261 261 263 266 270 274 274 273 272 271 270 268 266 269 270 269 275 281 283 288 289 289 294 303 298 293 297 293 284 288 294 295 295 290 291 304 314 320 322 316 308 302 295 291 292 292 289 287 288 291 291 287 285 282 268 253 249 254 255 249 243 239
273 273 273 272 272 272 270 265 258 256 261 261 259 258 253 251 256 258 259 261 261 262 265 265 264 265 266 268 270 271 271 270 268 266 264 261 261 259 258 260 268 279 286 288 290 293 294 293 291 287 281 281 288 290 290 289 284 287 298 306 315 319 312 304 300 294 291 291 290 287 285 285 286 290 288 282 277 271 257 245 244 250 248 244 240
272 271 271 272 272 272 268 260 258 262 264 262 260 257 252 250 254 256 255 258 261 262 263 265 263 262 263 264 265 268 268 267 262 256 255 256 255 254 255 256 259 271 281 286 289 289 290 289 283 278 280 282 284 286 287 285 282 284 292 302 314 316 307 299 295 289 289 288 286 284 282 282 283 284 280 272 269 269 263 250 245 247 246 244 242
269 270 270 271 271 272 271 267 264 264 264 262 258 255 252 249 251 254 251 254 259 259 260 260 258 261 263 262 263 263 263 262 253 243 246 253 255 255 258 260 264 273 279 283 284 286 289 283 270 263 268 275 279 285 285 281 281 283 291 305 313 310 301 296 291 287 286 282 280 280 280 282 283 277 267 262 261 263 261 252 249 250 249 246 244
267 270 272 272 273 274 274 271 267 262 260 261 259 257 254 250 250 252 252 255 257 256 256 254 256 262 262 260 261 260 258 258 249 240 245 253 256 257 258 262 270 276 277 279 281 284 282 270 263 260 261 269 277 281 280 278 282 285 293 306 308 301 295 295 292 288 284 280 279 278 279 282 282 274 264 261 262 261 256 247 245 249 251 252 250
268 270 273 275 276 273 270 267 266 263 260 260 259 256 254 251 249 252 254 254 254 251 249 250 256 261 259 257 258 256 255 258 253 246 246 250 253 256 259 265 271 273 273 276 280 279 272 259 257 260 261 266 270 271 273 277 285 289 295 302 300 293 294 293 293 293 288 285 284 281 281 282 278 271 267 267 265 262 258 251 244 245 248 251 254
268 267 268 273 273 268 265 265 264 262 259 257 255 254 254 252 250 251 251 249 247 244 243 248 255 258 258 255 253 253 255 258 259 257 256 255 257 261 266 270 271 270 270 273 274 272 265 255 256 259 258 260 262 266 272 278 285 290 295 296 291 289 292 291 296 299 295 292 291 284 280 280 278 274 273 274 271 265 261 254 244 242 246 248 250
268 266 267 267 264 259 257 257 259 260 259 258 257 257 256 254 251 248 246 243 242 242 244 250 253 256 256 252 252 260 264 264 264 266 267 266 266 269 270 271 269 268 268 268 266 266 263 259 260 259 255 256 259 266 274 280 285 288 291 290 285 286 287 287 295 301 297 294 292 287 279 277 278 279 279 277 273 266 259 253 243 240 246 249 249
267 269 270 262 253 251 252 256 259 262 261 260 261 260 256 252 249 247 244 243 244 246 249 252 255 255 252 250 255 266 272 273 271 273 274 274 274 272 270 268 264 263 264 263 260 260 259 257 257 255 254 257 261 270 278 280 282 284 286 286 284 283 281 283 293 299 299 294 290 287 282 280 278 280 281 278 274 267 258 251 244 240 243 247 249
266 267 266 259 255 255 256 260 261 259 258 259 260 259 257 254 251 249 247 248 250 251 251 252 253 252 252 255 262 270 275 277 277 278 277 276 275 272 268 264 259 257 256 256 253 251 252 251 250 252 256 261 267 275 277 277 278 280 282 284 282 280 278 281 291 298 299 294 289 287 282 280 279 280 281 277 274 271 263 254 246 241 242 244 245
264 263 262 261 262 259 255 255 257 257 256 257 257 256 257 256 253 250 248 247 247 248 253 255 255 255 258 263 269 273 275 276 277 275 272 271 271 269 264 257 253 251 245 243 244 245 246 247 248 254 262 269 272 273 271 272 275 278 281 282 279 278 278 283 292 296 297 293 289 288 283 277 278 280 280 276 272 271 269 262 252 244 242 244 245
262 263 264 264 264 261 256 255 259 260 257 256 255 253 254 253 251 248 244 240 242 250 260 263 263 262 263 265 269 271 271 271 270 269 267 266 265 262 258 250 245 242 236 236 239 243 246 250 255 262 267 270 270 268 268 271 275 278 281 278 274 276 280 286 292 294 294 291 287 287 284 278 276 278 278 276 272 271 271 268 260 251 246 247 248
261 263 264 264 263 260 258 260 262 260 256 256 255 251 251 251 249 245 241 242 248 256 261 263 263 262 262 263 264 264 265 264 263 262 260 257 255 253 251 244 236 234 234 237 244 250 254 258 262 264 265 265 264 265 268 272 276 279 278 273 271 273 279 286 290 290 289 286 285 287 285 280 277 277 277 276 274 274 273 270 265 259 251 249 249
260 261 261 262 261 258 260 262 263 259 256 257 255 251 250 249 247 244 244 249 253 255 258 259 260 260 259 260 261 259 259 260 260 260 257 253 248 244 243 243 238 237 241 247 254 257 259 261 261 260 260 262 264 265 269 273 276 276 274 272 271 272 277 283 286 286 285 282 283 287 286 282 279 277 276 277 276 275 275 274 270 266 258 251 249
259 259 260 261 259 259 264 265 264 261 258 256 252 250 249 249 249 249 252 256 256 256 256 257 260 262 261 262 263 263 263 264 264 262 259 255 248 241 241 245 248 248 249 251 253 254 258 261 261 260 261 264 267 269 271 273 273 273 271 271 272 272 276 281 283 283 283 280 282 287 287 283 279 277 276 277 277 276 277 276 273 271 265 257 251
257 258 259 260 260 264 267 266 265 261 255 251 248 246 247 249 251 254 258 260 259 257 255 256 262 265 265 266 268 269 269 269 269 268 265 259 252 246 242 245 250 252 252 251 251 254 259 262 263 264 266 268 270 271 272 272 270 270 269 269 270 271 274 279 280 280 280 279 281 286 287 283 279 276 275 276 277 277 277 276 274 272 269 264 257
257 259 259 259 261 265 266 264 261 258 252 247 245 245 246 250 251 253 256 258 258 257 256 260 265 266 266 269 270 269 268 268 269 271 269 264 258 253 248 246 248 251 253 254 255 256 258 261 263 265 268 270 271 272 271 270 269 269 268 268 268 269 273 276 278 278 279 279 280 285 286 283 279 277 275 275 276 277 277 276 275 272 269 266 262
257 260 261 261 263 265 265 262 258 255 250 245 244 246 247 250 253 252 254 256 256 259 262 265 267 267 267 268 266 265 265 266 267 268 267 264 261 259 256 253 251 252 253 254 255 256 258 262 266 269 271 272 273 273 273 272 271 270 269 268 267 269 272 275 276 277 279 279 281 285 287 283 279 277 276 276 276 277 277 278 276 273 270 267 264